Location: Moiano
(41.0833°N, 14.5333°E)
Time: 23:01:43
(UTC+00:00)

Daily predictions for brighter satellites

Satellite Brightness Start Highest point End
(mag) Time Altitude Azimuth Time Altitude Azimuth Time Altitude Azimuth
Cosmos 292 Rocket 4.0 17:03:53 10° S 17:08:26 49° ESE 17:13:02 10° NNE
Cosmos 2219 3.7 17:05:36 10° NNW 17:11:11 69° WSW 17:16:44 10° SSE
BREEZE-M DEB (TANK) 4.3 17:04:34 10° SSW 17:12:03 26° SSE 17:15:17 10° E
Cosmos 1242 Rocket 2.5 17:12:28 10° N 17:15:58 63° ENE 17:19:31 10° SSE
Cosmos 1818 3.6 17:10:58 10° NNW 17:16:26 65° NE 17:21:51 10° SE
YAOGAN 1 3.0 17:14:35 10° SE 17:18:36 38° ENE 17:22:37 10° N
Okean-O 3.1 17:15:27 10° SE 17:19:33 39° ENE 17:23:40 10° N
Helios 1A Rocket 4.0 17:16:51 10° ESE 17:20:09 24° ENE 17:23:26 10° NNE
IRIS 4.0 17:17:12 10° WSW 17:20:20 61° SSE 17:22:38 11° E
Cosmos 1500 Rocket 3.5 17:15:59 10° S 17:20:20 80° E 17:24:41 10° N
Timation 1 Rocket 4.4 17:14:43 10° NNW 17:20:40 65° ENE 17:26:34 10° SE
FALCON 9 DEB 2.9 17:17:55 10° SW 17:21:06 77° SE 17:24:18 10° NE
COSMO-SKYMED 1 2.8 17:16:47 10° N 17:21:08 78° WNW 17:25:27 10° SSW
Cosmos 1980 Rocket 2.4 17:16:12 10° S 17:21:40 53° ESE 17:27:11 10° NNE
Cosmos 220 Rocket 4.4 17:18:15 10° S 17:22:10 40° ESE 17:26:09 10° NE
Cosmos 1515 Rocket 4.0 17:19:01 10° NNW 17:23:24 68° W 17:27:47 10° S
SL-4 R/B 2.6 17:20:13 10° WSW 17:23:42 42° NNW 17:27:00 10° NE
Meteor 2-17 Rocket 4.4 17:18:45 10° S 17:24:46 64° E 17:30:49 10° NNE
FALCON 9 DEB 3.1 17:26:29 10° WSW 17:29:38 70° NW 17:32:47 10° NE
Sich 1 3.5 17:25:46 10° SSE 17:29:46 37° E 17:33:50 10° NNE
Lacrosse 5 rocket 1.7 17:26:50 10° NW 17:31:08 50° NE 17:35:13 10° ESE
Atlas Centaur 2 4.5 17:27:14 10° WSW 17:31:28 17° SSW 17:35:13 10° SSE
Cosmos 2322 Rocket 3.8 17:29:19 10° ESE 17:31:39 13° E 17:33:02 12° E
BREEZE-M DEB (TANK) 4.1 17:28:35 10° SSW 17:31:42 40° SE 17:40:51 10° ENE
Cosmos 1452 Rocket 4.1 17:26:37 10° SSW 17:31:49 63° WNW 17:37:02 10° NNE
Cosmos 44 3.6 17:30:27 10° NNW 17:35:52 61° NE 17:41:11 10° SE
Cosmos 2082 3.7 17:31:08 10° NNW 17:36:47 85° ENE 17:42:24 10° SSE
SJ-11-01 4.3 17:32:58 10° SSE 17:37:32 58° ENE 17:42:08 10° N
Cosmos 724 4.4 17:32:31 10° SSW 17:38:32 84° ESE 17:44:43 10° NNE
CZ-4B R/B 2.8 17:36:04 10° N 17:38:54 37° WNW 17:41:44 10° SW
Cosmos 1867 3.6 17:34:12 10° SSW 17:39:34 67° ESE 17:44:59 10° NE
Cosmos 1707 Rocket 4.2 17:39:33 10° NNE 17:43:34 33° ENE 17:47:31 10° SE
Cosmos 1741 Rocket 4.1 17:39:46 10° NNW 17:45:08 87° WSW 17:50:26 10° SSE
Cosmos 1633 Rocket 3.9 17:42:05 10° SSE 17:45:50 28° E 17:49:36 10° NNE
Cosmos 1697 Rocket 3.6 17:40:31 10° SW 17:46:01 51° WNW 17:51:32 10° NNE
Cosmos 1437 3.4 17:45:51 10° NNE 17:48:23 27° ENE 17:49:16 23° ESE
Cosmos 1110 Rocket 4.0 17:43:39 10° SSW 17:48:57 85° ESE 17:54:18 10° NNE
USA 234 3.4 17:43:38 10° NE 17:50:12 82° NW 17:56:44 10° SW
RESURS DK-1 4.3 17:46:54 10° NW 17:50:37 32° WSW 17:54:17 10° S
SL-16 R/B 3.1 17:46:10 10° SSE 17:50:41 25° ESE 17:55:08 10° NE
IRS-1C Rocket 4.4 17:45:32 10° S 17:50:46 71° WSW 17:56:04 10° NNW
ERS-2 2.0 17:47:23 10° NNE 17:51:02 84° ESE 17:54:41 10° SSW
DMSP B5D1-3 4.5 17:52:32 10° NNE 17:57:43 82° ESE 18:02:52 10° SSW
USA 305 3.4 17:55:21 10° WSW 17:59:35 58° NW 18:03:06 14° NE
PSLV R/B 4.3 17:55:50 10° N 17:59:57 67° WNW 18:03:58 10° SSW
SAR-Lupe-4 3.6 17:56:39 10° N 18:00:14 81° WNW 18:03:48 10° SSW
Cosmos 2154 Rocket 4.3 17:56:22 10° SSE 18:02:05 40° E 18:07:48 10° NNE
Ariane Rocket 4.1 18:03:13 22° ENE 18:03:54 23° ENE 18:07:51 10° NNE
CZ-4 R/B 2.2 18:01:03 10° S 18:04:46 49° W 18:08:31 10° NNW
Nadezhda 3 Rocket 4.5 17:59:00 10° N 18:04:52 38° ENE 18:10:43 10° SE
SeaSat 1 3.2 18:01:45 10° NNE 18:06:33 53° WNW 18:11:20 10° SW
DMSP B5D2-2 4.3 18:02:06 10° NNE 18:07:06 44° E 18:12:04 10° S
USA 307 3.5 18:03:12 10° WSW 18:07:24 53° NW 18:10:33 17° NE
Cosmos 2263 Rocket 2.3 18:05:16 10° NNW 18:10:40 50° ENE 18:14:09 21° SE
Cosmos 2074 Rocket 3.9 18:04:46 10° S 18:11:01 75° E 18:17:17 10° N
USA 306 3.8 18:09:40 10° WSW 18:13:48 46° NNW 18:16:44 18° NE
FALCON 9 DEB 4.4 18:10:56 10° W 18:13:51 32° NNW 18:15:24 21° NNE
USA 308 3.8 18:13:35 10° WSW 18:17:42 45° NNW 18:20:26 19° NNE
ERBS 3.3 18:18:45 10° SSW 18:21:02 32° SSE 18:21:02 32° SSE
Cosmos 2184 Rocket 3.9 18:17:30 10° S 18:23:39 89° E 18:29:51 10° N
H-2A R/B 3.3 18:19:16 10° S 18:24:23 45° W 18:29:37 10° NNW
ARGOS 3.6 18:19:47 10° S 18:25:08 65° WSW 18:30:33 10° NNW
SJ-6B 3.6 18:28:38 36° NE 18:28:38 36° NE 18:31:42 10° N
Cosmos 1932 4.5 18:22:28 10° SSW 18:28:50 62° ESE 18:33:45 18° NE
SL-08 RB Rocket 3.8 18:25:35 10° S 18:30:02 75° WSW 18:34:34 10° NNW
Meteor 1-25 Rocket 4.2 18:26:33 10° S 18:32:22 89° W 18:38:09 10° N
GP-B 3.2 18:33:07 50° ENE 18:33:07 50° ENE 18:37:05 10° N
Cosmos 1271 Rocket 2.7 18:29:24 10° NNW 18:33:08 77° W 18:35:18 24° S
COSMOS 2455 3.0 18:28:14 10° NNW 18:34:14 72° WSW 18:39:47 12° SSE
Meteor 1-18 Rocket 4.3 18:29:23 10° N 18:35:14 57° ENE 18:38:03 30° SE
MetOp-A 4.0 18:32:13 21° SSE 18:35:49 67° ENE 18:41:09 10° N
Cosmos 1461 3.0 18:31:23 10° SSW 18:36:04 72° ESE 18:37:22 46° NE
Cosmos 1602 3.6 18:32:51 10° S 18:36:42 90° SSE 18:40:37 10° N
CZ-2C R/B 3.1 18:33:50 10° N 18:39:19 63° WNW 18:44:39 10° SSW
Okean 1 3.9 18:35:54 10° N 18:38:49 44° NNE 18:38:49 44° NNE
Cosmos 1666 Rocket 4.2 18:36:36 10° SSW 18:40:53 56° W 18:45:09 10° N
Meteor 2-12 Rocket 4.3 18:38:27 10° S 18:44:26 70° E 18:50:29 10° NNE
Cosmos 1862 Rocket 3.4 18:40:23 10° N 18:44:53 81° E 18:45:36 62° SSE
CSL-04 Rocket 4.5 18:40:23 10° S 18:45:47 53° W 18:51:13 10° NNW
BREEZE-M DEB (TANK) 3.9 18:44:28 10° NW 18:46:16 22° N 18:46:16 22° N
Cosmos 2341 Rocket 4.2 18:40:43 10° SSE 18:46:44 47° E 18:52:44 10° NNE
Gbstr 26 Del rocket 4.1 18:43:09 10° W 18:47:30 46° NNW 18:49:30 31° NNE
Cosmos 1844 Rocket 4.2 18:44:11 10° N 18:47:04 21° NNE 18:47:04 21° NNE
Cosmos 962 Rocket 4.5 18:42:38 10° SSE 18:48:36 55° E 18:54:40 10° NNE
Cosmos 1486 Rocket 4.1 18:45:34 10° N 18:50:25 55° NE 18:50:25 55° NE
SL-4 R/B 4.2 19:01:42 10° NW 19:03:19 15° NNW 19:03:19 15° NNW
Cosmos 1980 Rocket 4.3 19:01:27 10° WSW 19:05:59 24° NW 19:10:33 10° N
Lacrosse 5 rocket 3.5 19:06:41 10° WNW 19:09:59 21° WSW 19:11:00 20° SW
Cosmos 2322 Rocket 2.1 19:09:16 10° SSW 19:14:52 82° WNW 19:15:03 81° NNW
Cosmos 968 Rocket 3.7 19:14:21 10° NNW 19:19:11 68° WNW 19:19:11 68° WNW
SL-16 R/B 3.1 19:29:03 10° SW 19:34:28 46° WNW 19:37:13 27° N
Resurs 01 Rocket 4.5 19:44:38 10° NNW 19:44:38 10° NNW 19:44:38 10° NNW
Ariane Rocket 4.2 19:43:24 40° WNW 19:43:24 40° WNW 19:47:26 10° NNW
Cosmos 2263 Rocket 4.2 19:50:00 10° NW 19:54:12 22° W 19:55:56 19° SW
